Location: L’Aireau
(47.3069°N, 0.4016°E)
Time: 15:06:46
(UTC+00:00)

Daily predictions for brighter satellites

Satellite Brightness Start Highest point End
(mag) Time Altitude Azimuth Time Altitude Azimuth Time Altitude Azimuth
USA 215 3.4 20:17:04 10° SE 20:23:38 76° SW 20:30:14 10° NW
Cosmos 494 Rocket 4.2 20:19:09 10° NNW 20:24:25 66° ENE 20:29:37 10° SSE
NOSS 2-3 (D) 4.2 20:23:51 10° S 20:26:58 26° ESE 20:30:14 10° ENE
Okean-O 2.7 20:24:50 10° SSE 20:29:13 87° WSW 20:33:40 10° NNW
ARGOS Delta rocket 4.1 20:25:14 10° S 20:29:53 73° W 20:34:51 10° NNW
Gbstr 26 Del rocket 3.4 20:27:22 10° WSW 20:31:35 77° NNW 20:36:46 10° ENE
Timation 2 Rocket 4.4 20:25:58 10° S 20:31:48 40° ESE 20:37:28 10° NE
CZ-4C R/B 3.4 20:30:16 10° NNE 20:33:52 46° E 20:37:16 10° S
Cosmos 1125 Rocket 4.5 20:29:43 10° SSE 20:34:08 28° E 20:38:35 10° NE
USA 276 2.3 20:36:20 10° WNW 20:39:14 64° NNE 20:42:15 10° E
Cosmos 2084 3.6 20:38:10 10° SSW 20:42:09 45° SE 20:45:58 10° NE
SPOT 3 Rocket 4.2 20:38:47 10° SE 20:43:39 42° ENE 20:48:33 10° N
NOSS 2-2 (E) 2.9 20:46:32 10° SSW 20:49:45 48° SE 20:52:47 10° NE
NOSS 2-2 (C) 2.6 20:46:51 10° SW 20:50:05 81° SE 20:53:13 10° NE
In-Cosmos 22 Rocket 4.4 20:46:39 10° S 20:52:14 55° E 20:57:43 10° NNE
Nadezhda 3 Rocket 4.0 20:47:29 10° N 20:53:40 74° E 20:59:48 10° SSE
BREEZE-M DEB (TANK) 3.2 20:51:14 10° WNW 20:53:57 89° NNE 21:01:06 10° ESE
NOSS 2-3 (E) 3.2 20:52:20 10° SSW 20:55:54 56° SE 20:59:49 10° NE
Cosmos 1844 4.1 20:50:47 10° SSW 20:56:34 74° WNW 21:02:22 10° NNE
Terra 1.8 20:52:45 10° SSE 20:57:26 72° ENE 21:02:10 10° N
Meteor 1-21 Rocket 4.2 20:58:07 10° S 21:03:41 86° W 21:09:15 10° N
GP-B 4.2 21:03:20 10° N 21:07:34 46° W 21:11:45 10° SSW
ATLAS CENTAUR R/B 1.3 21:03:36 10° NW 21:07:35 83° SW 21:10:52 16° SSE
Cosmos 1437 Rocket 4.0 21:07:20 16° SE 21:09:02 21° E 21:11:51 10° NE
NOSS 2-3 (C) 3.1 21:10:02 10° SW 21:13:38 84° SE 21:17:40 10° NE
Cosmos 1833 Rocket 3.2 21:08:24 10° NNW 21:13:54 49° ENE 21:18:22 15° SE
Meteor 2-1 Rocket 4.2 21:08:26 10° N 21:14:06 77° ENE 21:18:59 14° SSE
Cosmos 1455 Rocket 3.3 21:11:02 10° NNW 21:15:26 68° W 21:19:45 10° S
Cosmos 1975 Rocket 3.1 21:13:41 10° S 21:18:09 86° E 21:22:38 10° N
Cosmos 1025 Rocket 4.1 21:14:34 10° SSW 21:18:39 46° WNW 21:22:45 10° N
Cosmos 44 3.9 21:14:03 10° S 21:18:55 39° ESE 21:23:39 10° NE
Orbus 7S? 3.3 21:17:12 10° WNW 21:19:48 40° SW 21:21:20 20° SSE
Lacrosse 5 2.8 21:16:12 10° WSW 21:21:09 52° NNW 21:26:07 10° NE
ERS-1 Rocket 3.4 21:18:15 10° S 21:23:11 58° W 21:28:09 10° NNW
Spot 2 Rocket 3.6 21:19:30 12° S 21:24:10 78° WSW 21:29:18 10° NNW
Cosmos 220 Rocket 4.0 21:21:19 10° NNW 21:25:26 63° ENE 21:28:09 21° SE
Cosmos 2082 Rocket 3.9 21:22:20 10° N 21:26:46 23° NE 21:31:09 10° E
NOSS 2-2 (D) 3.2 21:24:19 10° SW 21:27:32 64° NW 21:30:41 10° NE
ATLAS 5 CENTAUR R/B 3.6 21:24:54 10° W 21:27:46 25° NW 21:30:57 10° NNE
Cosmos 2218 Rocket 4.4 21:23:41 16° SSE 21:28:13 43° E 21:34:00 10° NNE
Landsat 5 4.1 21:27:21 10° NNE 21:31:33 42° E 21:34:10 20° SSE
Cosmos 1844 Rocket 4.3 21:27:41 10° WSW 21:32:49 36° NW 21:37:58 10° NNE
Cosmos 2278 Rocket 3.3 21:31:13 19° SE 21:33:49 26° ESE 21:38:25 10° NE
Cosmos 1606 2.6 21:32:14 10° NNW 21:35:48 76° W 21:38:05 21° S
MetOp-A 4.0 21:35:02 21° SE 21:37:58 55° ENE 21:42:14 10° N
Cosmos 2298 Rocket 4.2 21:33:31 13° S 21:38:04 52° ESE 21:43:15 10° NNE
Cosmos 2341 Rocket 4.1 21:33:38 14° S 21:39:06 66° E 21:45:24 10° NNE
Cosmos 614 Rocket 4.3 21:36:28 10° NNW 21:41:27 53° ENE 21:44:35 22° SE
Meteor 1-11 4.4 21:36:35 10° SSW 21:42:19 77° WNW 21:48:01 10° N
Cosmos 1869 3.6 21:43:52 10° NNW 21:47:39 60° W 21:50:08 20° S
Cosmos 1536 Rocket 3.8 21:47:10 25° SSE 21:49:23 49° E 21:53:34 10° NNE
CZ-4C R/B 4.3 21:44:15 10° NNW 21:49:55 30° NNE 21:56:41 10° E
Ariane Rocket 3.7 21:47:26 14° S 21:51:37 49° W 21:56:33 10° NNW
ISS -2.3 21:49:45 10° WNW 21:52:53 37° N 21:56:00 10° ENE
USA 290 4.1 21:58:14 18° E 21:58:14 18° E 21:59:55 10° NE
ARIANE 5 R/B 3.5 21:58:54 23° ESE 22:01:01 38° ENE 22:05:09 10° N
GENESIS II 3.9 21:58:44 10° NW 22:02:18 79° SW 22:03:31 39° SSE
ATLAS 3B R/B 3.7 22:01:26 22° SE 22:04:03 28° ESE 22:10:10 10° NE
BREEZE-M DEB (TANK) 3.4 21:53:24 10° WNW 22:04:20 55° SW 22:06:11 30° SSE
Cosmos 1727 Rocket 4.4 21:58:59 10° N 22:05:12 53° ENE 22:08:48 25° SE
Cosmos 2228 3.1 22:01:45 10° NNW 22:05:56 70° W 22:08:06 27° S
Cosmos 1943 Rocket 3.0 22:08:20 26° SE 22:10:09 32° ESE 22:15:05 10° NE
Geosat 4.4 22:05:35 10° NNE 22:10:34 66° WNW 22:15:32 10° SW
USA 276 3.0 22:10:37 10° W 22:13:09 32° SW 22:13:09 32° SW
Cosmos 1821 Rocket 4.2 22:09:49 25° SSE 22:13:26 57° E 22:19:39 10° NNE
Gbstr 26 Del rocket 4.3 22:14:07 10° WNW 22:18:43 52° N 22:24:25 10° ENE
Cosmos 2058 4.4 22:19:03 20° E 22:19:36 21° E 22:22:41 10° NE
Cosmos 2150 Rocket 4.3 22:14:23 10° SSW 22:19:44 74° WNW 22:25:13 10° NNE
ALOS 2 4.3 22:19:19 17° E 22:21:14 23° ENE 22:24:44 10° NNE
Cosmos 2084 Rocket 4.0 22:21:46 10° NNW 22:25:37 46° NE 22:27:21 27° E
NOSS 3-1 (C) 2.9 22:24:27 16° SSW 22:28:22 75° SE 22:34:13 10° NE
SeaSat 1 3.4 22:26:56 21° ESE 22:29:45 41° NE 22:34:21 10° NNW
Terra 4.2 22:32:56 10° WSW 22:35:33 15° W 22:38:10 10° NW
Cosmos 2366 rocket 4.4 22:30:37 15° SSW 22:35:39 60° WNW 22:41:44 10° N
Cosmos 1812 3.0 22:32:31 10° N 22:35:58 46° ENE 22:36:28 42° ESE
USA 305 4.4 22:34:28 10° NW 22:37:35 26° N 22:40:19 10° ENE
Aureole 2 4.0 22:41:11 80° SSE 22:41:17 82° ESE 22:44:38 10° NNE
Cosmos 1238 Rocket 4.2 22:38:42 10° NNE 22:41:29 22° ENE 22:42:01 22° E
BREEZE-M R/B 3.7 22:37:32 10° WSW 22:41:46 85° SSE 22:55:26 10° ENE
PSLV R/B 3.9 22:40:08 10° NNE 22:44:05 61° ESE 22:44:51 49° SSE
Cosmos 1437 Rocket 4.4 22:42:03 14° SW 22:44:31 27° WNW 22:47:40 10° N
ATLAS CENTAUR R/B 3.9 22:44:08 10° WSW 22:44:33 10° WSW 22:44:57 10° WSW
Cosmos 1892 Rocket 3.7 22:45:05 43° SSE 22:46:13 58° E 22:50:36 10° NNE
Cosmos 1140 Rocket 4.0 22:47:37 10° NNW 22:52:36 48° ENE 22:54:49 29° ESE
Cosmos 1833 Rocket 4.0 22:52:46 10° NW 22:57:34 29° WSW 23:00:03 21° SW
MINOTAUR 4 R/B 4.3 22:54:51 10° NNE 22:57:02 44° NE 22:57:02 44° NE
Cosmos 2239 Rocket 4.4 22:55:30 32° S 22:58:33 84° E 23:04:49 10° N
SL-08 R/B 4.4 22:57:34 33° S 23:00:32 86° E 23:06:41 10° N
BREEZE-M DEB (TANK) 3.6 22:58:24 10° WNW 23:01:16 80° NNE 23:08:50 10° ESE
USA 307 4.3 22:58:23 10° NW 23:01:51 31° N 23:05:03 10° ENE
Cosmos-2242 4.2 23:01:06 10° N 23:04:51 30° ENE 23:05:51 27° E
Lacrosse 5 4.0 23:00:40 10° WNW 23:05:01 28° N 23:09:23 10° NE
Cosmos 2123 Rocket 4.1 22:58:47 10° N 23:05:05 70° E 23:07:51 35° SSE
Cosmos 1606 Rocket 4.2 23:01:37 10° NNW 23:05:46 46° W 23:07:01 35° SW
NOSS 3-1 (A) 3.0 23:03:57 38° SSW 23:05:48 67° SE 23:11:37 10° NE
Cosmos 1726 Rocket 3.8 23:03:44 10° NNW 23:08:01 59° W 23:09:05 44° SSW
Cosmos 1000 Rocket 4.5 23:03:45 10° NNW 23:09:55 76° W 23:12:37 35° S
Cosmos 2082 Rocket 2.1 23:05:49 10° NNW 23:11:27 75° WSW 23:13:28 41° S
Cosmos 2278 Rocket 2.8 23:12:59 15° SW 23:17:31 55° WNW 23:23:06 10° NNE
ULPM Upper Stage 2.7 23:15:37 10° NW 23:20:01 86° NE 23:20:59 53° SE
Cosmos 2369 Rocket 3.5 23:19:37 22° ESE 23:20:23 23° ESE 23:24:41 10° NE
H-2A R/B 2.3 23:20:31 61° SSW 23:20:59 69° WSW 23:24:50 10° NNW
PSLV R/B 4.2 23:17:42 10° NNE 23:21:49 41° E 23:22:20 40° ESE
Cosmos 489 Rocket 4.4 23:24:24 38° S 23:26:47 69° ESE 23:32:59 10° NNE
ISS -3.5 23:26:40 10° WNW 23:29:59 64° NNE 23:30:09 62° NE
USA 290 4.0 23:30:56 23° W 23:31:49 26° WNW 23:34:36 10° N
USA 229 DEB 4.0 23:32:18 35° SE 23:33:38 39° ESE 23:39:43 10° NE
USA 229 4.0 23:32:27 35° SE 23:33:46 39° ESE 23:39:50 10° NE
Cosmos 2058 Rocket 3.2 23:29:32 10° NNW 23:33:49 60° W 23:34:37 50° SW
Cosmos 1782 2.7 23:30:32 10° N 23:34:19 63° E 23:34:35 61° ESE
Cosmos 1862 4.4 23:35:38 30° E 23:35:40 30° E 23:39:03 10° NNE
CRYOSAT 2 4.3 23:31:47 10° N 23:36:43 81° E 23:37:58 51° S
ARIANE 5 R/B 4.1 23:36:22 22° WSW 23:37:30 25° W 23:41:11 10° NW
Cosmos 1378 3.5 23:35:15 10° N 23:38:06 44° ENE 23:38:06 44° ENE
CZ-4C R/B 3.1 23:32:21 10° NW 23:39:25 77° NE 23:45:35 21° SE
COSMOS 2455 4.5 23:34:45 10° NNW 23:40:05 31° NE 23:45:22 10° ESE
COSMOS 2406 3.4 23:35:38 10° NW 23:41:12 57° WSW 23:42:49 42° SSW
Meteor 2-2 Rocket 4.3 23:35:30 10° N 23:41:14 72° ENE 23:43:24 40° SSE
Cosmos 1934 Rocket 4.0 23:39:13 35° SSW 23:42:01 75° W 23:48:16 10° N
Cosmos 2221 4.2 23:41:59 10° NNE 23:45:27 24° ENE 23:46:52 20° E
Cosmos 2285 Rocket 4.3 23:45:49 10° NNW 23:52:13 63° ENE 23:55:34 29° SE
Cosmos 1943 Rocket 3.0 23:49:48 18° WSW 23:53:43 46° NW 23:59:08 10° NNE
Cosmos 2058 4.0 23:54:52 31° WSW 23:55:54 36° WNW 23:59:43 10° N
